TimeMDT,TemperatureF,Dew PointF,Humidity,Sea Level PressureIn,VisibilityMPH,Wind Direction,Wind SpeedMPH,Gust SpeedMPH,PrecipitationIn,Events,Conditions,WindDirDegrees,DateUTC
12:15 AM,37.4,6.8,28,30.22,10.0,ESE,9.2,-,N/A,,Partly Cloudy,110,2013-03-29 06:15:00
12:35 AM,35.6,8.6,33,30.22,10.0,East,10.4,-,N/A,,Clear,100,2013-03-29 06:35:00
12:55 AM,35.6,10.4,35,30.22,10.0,East,10.4,-,N/A,,Clear,100,2013-03-29 06:55:00
1:15 AM,33.8,8.6,35,30.22,10.0,East,6.9,-,N/A,,Clear,100,2013-03-29 07:15:00
1:35 AM,32.0,8.6,38,30.23,10.0,ESE,8.1,-,N/A,,Clear,110,2013-03-29 07:35:00
1:55 AM,32.0,8.6,38,30.23,10.0,NE,3.5,-,N/A,,Clear,40,2013-03-29 07:55:00
2:15 AM,33.8,10.4,38,30.23,10.0,NNE,4.6,-,N/A,,Clear,30,2013-03-29 08:15:00
2:35 AM,35.6,10.4,35,30.23,10.0,Calm,Calm,-,N/A,,Clear,0,2013-03-29 08:35:00
2:55 AM,33.8,10.4,38,30.23,10.0,Calm,Calm,-,N/A,,Partly Cloudy,0,2013-03-29 08:55:00
3:15 AM,33.8,10.4,38,30.23,10.0,North,4.6,-,N/A,,Partly Cloudy,350,2013-03-29 09:15:00
3:35 AM,33.8,10.4,38,30.23,10.0,North,5.8,-,N/A,,Scattered Clouds,10,2013-03-29 09:35:00
3:55 AM,33.8,12.2,41,30.22,10.0,NNE,6.9,-,N/A,,Partly Cloudy,20,2013-03-29 09:55:00
4:15 AM,33.8,10.4,38,30.23,10.0,North,4.6,-,N/A,,Clear,10,2013-03-29 10:15:00
4:35 AM,32.0,10.4,41,30.23,10.0,North,5.8,-,N/A,,Clear,360,2013-03-29 10:35:00
4:55 AM,30.2,10.4,44,30.23,10.0,NNE,6.9,-,N/A,,Clear,20,2013-03-29 10:55:00
5:15 AM,28.4,8.6,43,30.23,10.0,North,5.8,-,N/A,,Clear,10,2013-03-29 11:15:00
5:35 AM,28.4,10.4,47,30.23,10.0,North,6.9,-,N/A,,Clear,360,2013-03-29 11:35:00
5:55 AM,26.6,8.6,47,30.23,10.0,North,8.1,-,N/A,,Clear,10,2013-03-29 11:55:00
6:15 AM,26.6,8.6,47,30.24,10.0,North,3.5,-,N/A,,Clear,360,2013-03-29 12:15:00
6:35 AM,30.2,12.2,47,30.24,10.0,North,5.8,-,N/A,,Clear,360,2013-03-29 12:35:00
6:55 AM,26.6,8.6,47,30.24,10.0,North,4.6,-,N/A,,Clear,360,2013-03-29 12:55:00
7:15 AM,26.6,8.6,47,30.25,10.0,Calm,Calm,-,N/A,,Clear,0,2013-03-29 13:15:00
7:35 AM,28.4,10.4,47,30.26,10.0,North,3.5,-,N/A,,Clear,10,2013-03-29 13:35:00
7:55 AM,28.4,10.4,47,30.26,10.0,North,4.6,-,N/A,,Clear,10,2013-03-29 13:55:00
8:15 AM,30.2,12.2,47,30.26,10.0,North,4.6,-,N/A,,Clear,360,2013-03-29 14:15:00
8:35 AM,35.6,15.8,44,30.27,10.0,North,6.9,-,N/A,,Clear,350,2013-03-29 14:35:00
8:55 AM,39.2,15.8,39,30.27,10.0,Calm,Calm,-,N/A,,Clear,0,2013-03-29 14:55:00
9:15 AM,44.6,17.6,34,30.27,10.0,Calm,Calm,-,N/A,,Clear,0,2013-03-29 15:15:00
9:35 AM,46.4,15.8,29,30.27,10.0,Calm,Calm,-,N/A,,Clear,0,2013-03-29 15:35:00
9:55 AM,48.2,17.6,30,30.27,10.0,ESE,3.5,-,N/A,,Clear,120,2013-03-29 15:55:00
10:15 AM,50.0,17.6,28,30.26,10.0,South,4.6,-,N/A,,Clear,170,2013-03-29 16:15:00
10:55 AM,51.8,17.6,26,30.27,10.0,SSW,5.8,-,N/A,,Clear,210,2013-03-29 16:55:00
11:15 AM,53.6,17.6,24,30.26,10.0,SW,6.9,-,N/A,,Clear,220,2013-03-29 17:15:00
11:35 AM,55.4,19.4,25,30.26,10.0,South,8.1,-,N/A,,Clear,180,2013-03-29 17:35:00
11:55 AM,55.4,19.4,25,30.25,10.0,SSE,5.8,-,N/A,,Clear,160,2013-03-29 17:55:00
12:15 PM,59.0,19.4,22,30.24,10.0,SSW,5.8,-,N/A,,Clear,210,2013-03-29 18:15:00
12:35 PM,59.0,19.4,22,30.24,10.0,SSW,6.9,-,N/A,,Clear,210,2013-03-29 18:35:00
12:55 PM,60.8,19.4,20,30.23,10.0,SW,3.5,-,N/A,,Clear,230,2013-03-29 18:55:00
1:15 PM,59.0,19.4,22,30.22,10.0,SSW,9.2,16.1,N/A,,Mostly Cloudy,210,2013-03-29 19:15:00
1:35 PM,60.8,21.2,22,30.22,10.0,SW,5.8,24.2,N/A,,Mostly Cloudy,230,2013-03-29 19:35:00
1:55 PM,60.8,19.4,20,30.20,10.0,Calm,Calm,-,N/A,,Mostly Cloudy,0,2013-03-29 19:55:00
2:15 PM,62.6,19.4,19,30.20,10.0,West,5.8,-,N/A,,Mostly Cloudy,260,2013-03-29 20:15:00
2:35 PM,60.8,19.4,20,30.18,10.0,WNW,5.8,-,N/A,,Mostly Cloudy,290,2013-03-29 20:35:00
2:55 PM,64.4,17.6,16,30.17,10.0,West,11.5,-,N/A,,Scattered Clouds,270,2013-03-29 20:55:00
3:15 PM,60.8,15.8,17,30.17,10.0,West,6.9,-,N/A,,Overcast,270,2013-03-29 21:15:00
3:35 PM,62.6,17.6,18,30.17,10.0,SSW,17.3,23.0,N/A,,Mostly Cloudy,210,2013-03-29 21:35:00
3:55 PM,60.8,15.8,17,30.17,10.0,NNW,10.4,24.2,N/A,,Clear,340,2013-03-29 21:55:00
4:15 PM,60.8,17.6,19,30.16,10.0,West,13.8,17.3,N/A,,Clear,270,2013-03-29 22:15:00
4:35 PM,60.8,19.4,20,30.17,10.0,West,18.4,35.7,N/A,,Clear,270,2013-03-29 22:35:00
4:55 PM,57.2,19.4,23,30.16,10.0,West,11.5,-,N/A,,Clear,270,2013-03-29 22:55:00
5:15 PM,57.2,19.4,23,30.16,10.0,SW,17.3,-,N/A,,Clear,230,2013-03-29 23:15:00
5:35 PM,57.2,19.4,23,30.16,10.0,SW,10.4,20.7,N/A,,Partly Cloudy,220,2013-03-29 23:35:00
5:55 PM,57.2,21.2,25,30.18,10.0,North,11.5,-,N/A,,Mostly Cloudy,10,2013-03-29 23:55:00
6:15 PM,57.2,21.2,25,30.18,10.0,NNE,16.1,-,N/A,,Overcast,20,2013-03-30 00:15:00
6:35 PM,57.2,23.0,27,30.19,10.0,North,15.0,18.4,N/A,Thunderstorm,Overcast,10,2013-03-30 00:35:00
6:55 PM,55.4,21.2,26,30.19,10.0,NNE,10.4,16.1,N/A,,Scattered Clouds,20,2013-03-30 00:55:00
7:15 PM,53.6,21.2,28,30.20,10.0,NE,6.9,-,N/A,,Clear,40,2013-03-30 01:15:00
7:35 PM,50.0,24.8,37,30.20,10.0,SSE,9.2,-,N/A,,Clear,160,2013-03-30 01:35:00
7:55 PM,48.2,26.6,43,30.21,10.0,South,8.1,-,N/A,,Mostly Cloudy,170,2013-03-30 01:55:00
8:15 PM,46.4,26.6,46,30.22,10.0,SE,8.1,-,N/A,,Overcast,130,2013-03-30 02:15:00
8:35 PM,46.4,26.6,46,30.22,10.0,SE,5.8,-,N/A,,Overcast,130,2013-03-30 02:35:00
8:55 PM,44.6,26.6,49,30.23,10.0,SE,11.5,-,N/A,,Mostly Cloudy,130,2013-03-30 02:55:00
9:15 PM,42.8,24.8,49,30.23,10.0,ESE,9.2,-,N/A,,Mostly Cloudy,120,2013-03-30 03:15:00
9:35 PM,42.8,24.8,49,30.23,10.0,East,9.2,-,N/A,,Overcast,100,2013-03-30 03:35:00
9:55 PM,42.8,24.8,49,30.24,10.0,East,11.5,-,N/A,,Overcast,100,2013-03-30 03:55:00
10:15 PM,39.2,21.2,49,30.25,10.0,East,9.2,-,N/A,,Partly Cloudy,100,2013-03-30 04:15:00
10:35 PM,37.4,19.4,48,30.25,10.0,Calm,Calm,-,N/A,,Clear,0,2013-03-30 04:35:00
10:55 PM,35.6,19.4,52,30.25,10.0,Calm,Calm,-,N/A,,Clear,0,2013-03-30 04:55:00
11:15 PM,33.8,17.6,52,30.26,10.0,Calm,Calm,-,N/A,,Clear,0,2013-03-30 05:15:00
11:35 PM,35.6,19.4,52,30.26,10.0,Calm,Calm,-,N/A,,Clear,0,2013-03-30 05:35:00
11:55 PM,33.8,17.6,52,30.26,10.0,Calm,Calm,-,N/A,,Clear,0,2013-03-30 05:55:00